Location: Decatur(IL)
(39.8400°N, 88.9550°W)
Time: 08:47:16
(UTC-05:00)

Cosmos 1953 - Visible Passes

Search period start: 01 October 2016 00:00
Search period end: 11 October 2016 00:00
Orbit: 541 x 562 km, 82.5° (Epoch: 30 September)

Date Brightness Start Highest point End Pass type
(mag) Time Alt. Az. Time Alt. Az. Time Alt. Az.
01 Oct 5.7 05:33:10 10° NE 05:35:16 14° ENE 05:37:21 10° ESE visible
01 Oct 2.3 19:27:20 10° S 19:31:19 88° W 19:35:19 10° N visible
02 Oct 5.6 05:29:06 10° NE 05:31:31 15° ENE 05:33:53 10° ESE visible
02 Oct 2.4 19:23:32 10° S 19:27:31 79° W 19:31:30 10° N visible
03 Oct 5.5 05:25:04 10° NNE 05:27:44 17° ENE 05:30:23 10° ESE visible
03 Oct 2.6 19:19:45 10° SSW 19:23:42 70° W 19:27:41 10° N visible
04 Oct 5.3 05:21:05 10° NNE 05:23:57 19° ENE 05:26:49 10° ESE visible
04 Oct 2.9 19:15:58 10° SSW 19:19:54 62° W 19:23:51 10° N visible
05 Oct 5.1 05:17:07 10° NNE 05:20:11 20° ENE 05:23:14 10° ESE visible
05 Oct 3.1 19:12:11 10° SSW 19:16:04 55° W 19:20:00 10° N visible
06 Oct 4.9 05:13:10 10° NNE 05:16:24 23° ENE 05:19:37 10° SE visible
06 Oct 3.4 19:08:26 10° SSW 19:12:17 49° W 19:16:09 10° N visible
07 Oct 4.7 05:09:14 10° NNE 05:12:36 25° ENE 05:15:58 10° SE visible
07 Oct 3.7 19:04:41 10° SSW 19:08:29 43° W 19:12:17 10° N visible
08 Oct 4.5 05:05:19 10° NNE 05:08:49 28° ENE 05:12:19 10° SE visible
08 Oct 4.0 19:00:57 10° SSW 19:04:40 39° WNW 19:08:25 10° N visible
09 Oct 4.2 05:01:25 10° NNE 05:05:02 31° ENE 05:08:38 10° SE visible
09 Oct 4.2 18:57:14 10° SW 19:00:52 35° WNW 19:04:32 10° N visible
10 Oct 4.0 04:57:31 10° N 05:01:14 34° ENE 05:04:56 10° SE visible
10 Oct 4.5 18:53:31 10° SW 18:57:04 31° WNW 19:00:39 10° NNW visible
